When you browse on this site, cookies collect data to enhance your experience and personalize the content and advertising you see.
Visit our Privacy Policy to learn more. By continuing to use the site, you agree to this use of cookies and data.
  • en Suisse
  • Liste des pays
  • À 7 jours
  • Température de l'eau
  • Carte météo
  • Widgets météo
  • user-avatar
    Se connecter

    Météo par heure à Ludwinow

    Ce jour, 15 Septembre, Dimanche

    Heure Température Précipitation Vent Pression Humidité
    00:00 +11°C° 0 mm 1 m/s 753 mmHg 68%
    01:00 +11°C° 0 mm 1 m/s 752 mmHg 69%
    02:00 +9°C° 0 mm 2 m/s 752 mmHg 72%
    03:00 +9°C° 0 mm 2 m/s 751 mmHg 74%
    04:00 +9°C° 0 mm 2 m/s 751 mmHg 76%
    05:00 +10°C° 0 mm 3 m/s 751 mmHg 74%
    06:00 +11°C° 0 mm 3 m/s 750 mmHg 72%
    07:00 +11°C° 0 mm 3 m/s 750 mmHg 69%
    08:00 +13°C° 0 mm 4 m/s 749 mmHg 62%
    09:00 +15°C° 0 mm 5 m/s 749 mmHg 55%
    10:00 +17°C° 0 mm 6 m/s 748 mmHg 49%
    11:00 +19°C° 0 mm 6 m/s 748 mmHg 47%
    12:00 +20°C° 0 mm 6 m/s 747 mmHg 45%
    13:00 +21°C° 0 mm 6 m/s 747 mmHg 43%
    14:00 +21°C° 0 mm 6 m/s 746 mmHg 46%
    15:00 +21°C° 0 mm 5 m/s 745 mmHg 49%
    16:00 +21°C° 0 mm 5 m/s 745 mmHg 52%
    17:00 +20°C° 0 mm 5 m/s 745 mmHg 57%
    18:00 +19°C° 0 mm 5 m/s 744 mmHg 61%
    19:00 +17°C° 0 mm 5 m/s 744 mmHg 65%
    20:00 +16°C° 0 mm 5 m/s 744 mmHg 67%
    21:00 +17°C° 0 mm 4 m/s 744 mmHg 69%
    22:00 +15°C° 0 mm 4 m/s 744 mmHg 71%
    23:00 +15°C° 0 mm 4 m/s 744 mmHg 69%

    Demain, 16 Septembre, Lundi

    Heure Température Précipitation Vent Pression Humidité
    00:00 +14°C° 0 mm 4 m/s 744 mmHg 66%
    01:00 +14°C° 0 mm 4 m/s 744 mmHg 64%
    02:00 +14°C° 0 mm 4 m/s 744 mmHg 63%
    03:00 +13°C° 0 mm 4 m/s 743 mmHg 62%
    04:00 +13°C° 0 mm 4 m/s 743 mmHg 61%
    05:00 +13°C° 0 mm 4 m/s 743 mmHg 64%
    06:00 +13°C° 0 mm 4 m/s 743 mmHg 67%
    07:00 +13°C° 0 mm 4 m/s 743 mmHg 70%
    08:00 +13°C° 0.2 mm 4 m/s 743 mmHg 74%
    09:00 +13°C° 0.2 mm 4 m/s 743 mmHg 78%
    10:00 +12°C° 0.2 mm 4 m/s 743 mmHg 82%
    11:00 +12°C° 0.2 mm 5 m/s 743 mmHg 82%
    12:00 +12°C° 0.2 mm 5 m/s 742 mmHg 81%
    13:00 +12°C° 0.2 mm 5 m/s 742 mmHg 81%
    14:00 +12°C° 0.1 mm 5 m/s 742 mmHg 82%
    15:00 +12°C° 0.1 mm 4 m/s 742 mmHg 83%
    16:00 +12°C° 0.1 mm 4 m/s 741 mmHg 84%
    17:00 +12°C° 0.1 mm 4 m/s 741 mmHg 85%
    18:00 +12°C° 0.1 mm 4 m/s 741 mmHg 86%
    19:00 +11°C° 0.1 mm 3 m/s 741 mmHg 88%
    20:00 +11°C° 0.4 mm 4 m/s 741 mmHg 89%
    21:00 +11°C° 0.4 mm 4 m/s 741 mmHg 90%
    22:00 +11°C° 0.4 mm 4 m/s 741 mmHg 92%
    23:00 +11°C° 0 mm 4 m/s 741 mmHg 90%

    Après-demain, 17 Septembre, Mardi

    Heure Température Précipitation Vent Pression Humidité
    00:00 +11°C° 0 mm 4 m/s 741 mmHg 89%
    01:00 +10°C° 0 mm 4 m/s 741 mmHg 88%
    02:00 +10°C° 0 mm 4 m/s 741 mmHg 86%
    03:00 +8°C° 0 mm 4 m/s 741 mmHg 84%
    04:00 +7°C° 0 mm 4 m/s 741 mmHg 82%
    05:00 +8°C° 0 mm 4 m/s 741 mmHg 80%
    06:00 +8°C° 0 mm 5 m/s 741 mmHg 78%
    07:00 +9°C° 0 mm 6 m/s 741 mmHg 76%
    08:00 +10°C° 0 mm 6 m/s 741 mmHg 70%
    09:00 +11°C° 0 mm 7 m/s 740 mmHg 64%
    10:00 +12°C° 0 mm 7 m/s 740 mmHg 57%
    11:00 +12°C° 0.1 mm 8 m/s 740 mmHg 55%
    12:00 +13°C° 0.1 mm 8 m/s 739 mmHg 53%
    13:00 +13°C° 0.1 mm 9 m/s 739 mmHg 51%
    14:00 +13°C° 0.2 mm 9 m/s 739 mmHg 56%
    15:00 +12°C° 0.2 mm 9 m/s 738 mmHg 62%
    16:00 +11°C° 0.2 mm 9 m/s 738 mmHg 67%
    17:00 +10°C° 0.3 mm 8 m/s 738 mmHg 69%
    18:00 +9°C° 0.3 mm 7 m/s 738 mmHg 71%
    19:00 +9°C° 0.3 mm 6 m/s 738 mmHg 74%
    20:00 +8°C° 0 mm 6 m/s 739 mmHg 75%
    21:00 +6°C° 0 mm 7 m/s 739 mmHg 76%
    22:00 +6°C° 0 mm 7 m/s 739 mmHg 77%
    23:00 +5°C° 0 mm 7 m/s 739 mmHg 78%

    18 Septembre, Mercredi

    Heure Température Précipitation Vent Pression Humidité
    00:00 +5°C° 0 mm 7 m/s 739 mmHg 79%
    01:00 +5°C° 0 mm 7 m/s 739 mmHg 79%
    02:00 +5°C° 0 mm 7 m/s 740 mmHg 80%
    03:00 +4°C° 0 mm 7 m/s 740 mmHg 81%
    04:00 +4°C° 0 mm 7 m/s 740 mmHg 82%
    05:00 +5°C° 0 mm 7 m/s 741 mmHg 80%
    06:00 +5°C° 0 mm 7 m/s 741 mmHg 78%
    07:00 +6°C° 0 mm 8 m/s 742 mmHg 76%
    08:00 +7°C° 0 mm 8 m/s 742 mmHg 71%
    09:00 +9°C° 0 mm 7 m/s 743 mmHg 66%
    10:00 +10°C° 0 mm 7 m/s 744 mmHg 61%
    11:00 +11°C° 0 mm 7 m/s 743 mmHg 58%
    12:00 +11°C° 0 mm 7 m/s 743 mmHg 54%
    13:00 +12°C° 0 mm 8 m/s 743 mmHg 51%
    14:00 +12°C° 0 mm 7 m/s 743 mmHg 51%
    15:00 +12°C° 0 mm 7 m/s 743 mmHg 52%
    16:00 +13°C° 0 mm 6 m/s 744 mmHg 53%
    17:00 +10°C° 0.1 mm 5 m/s 744 mmHg 61%
    18:00 +10°C° 0.1 mm 4 m/s 744 mmHg 68%
    19:00 +9°C° 0.1 mm 3 m/s 744 mmHg 76%
    20:00 +8°C° 0.2 mm 3 m/s 745 mmHg 78%
    21:00 +8°C° 0.2 mm 3 m/s 745 mmHg 80%
    22:00 +8°C° 0.2 mm 3 m/s 745 mmHg 83%
    23:00 +7°C° 0.1 mm 3 m/s 745 mmHg 85%

    19 Septembre, Jeudi

    Heure Température Précipitation Vent Pression Humidité
    00:00 +7°C° 0.1 mm 3 m/s 745 mmHg 86%
    01:00 +5°C° 0.1 mm 3 m/s 745 mmHg 88%
    02:00 +5°C° 0.1 mm 3 m/s 745 mmHg 89%
    03:00 +5°C° 0.1 mm 3 m/s 745 mmHg 89%
    04:00 +5°C° 0.1 mm 3 m/s 745 mmHg 90%
    05:00 +5°C° 0 mm 3 m/s 745 mmHg 88%
    06:00 +6°C° 0 mm 4 m/s 745 mmHg 86%
    07:00 +6°C° 0 mm 4 m/s 745 mmHg 84%
    08:00 +8°C° 0 mm 4 m/s 746 mmHg 77%
    09:00 +9°C° 0 mm 5 m/s 746 mmHg 69%
    10:00 +12°C° 0 mm 5 m/s 746 mmHg 62%
    11:00 +12°C° 0.1 mm 5 m/s 746 mmHg 57%
    12:00 +13°C° 0.1 mm 5 m/s 746 mmHg 53%
    13:00 +14°C° 0.1 mm 5 m/s 746 mmHg 49%
    14:00 +13°C° 0.2 mm 5 m/s 746 mmHg 50%
    15:00 +13°C° 0.2 mm 5 m/s 746 mmHg 51%
    16:00 +13°C° 0.2 mm 5 m/s 746 mmHg 53%
    17:00 +11°C° 0.4 mm 4 m/s 746 mmHg 61%
    18:00 +10°C° 0.4 mm 3 m/s 747 mmHg 69%
    19:00 +9°C° 0.4 mm 3 m/s 747 mmHg 77%
    20:00 +8°C° 0.1 mm 3 m/s 748 mmHg 77%
    21:00 +8°C° 0.1 mm 3 m/s 748 mmHg 78%
    22:00 +7°C° 0.1 mm 3 m/s 748 mmHg 78%
    23:00 +5°C° 0 mm 3 m/s 748 mmHg 78%

    20 Septembre, Vendredi

    Heure Température Précipitation Vent Pression Humidité
    00:00 +5°C° 0 mm 4 m/s 749 mmHg 78%
    01:00 +4°C° 0 mm 4 m/s 749 mmHg 78%
    02:00 +4°C° 0 mm 4 m/s 749 mmHg 79%
    03:00 +4°C° 0 mm 4 m/s 749 mmHg 80%
    04:00 +3°C° 0 mm 5 m/s 749 mmHg 81%
    05:00 +3°C° 0 mm 5 m/s 750 mmHg 81%
    06:00 +5°C° 0 mm 5 m/s 750 mmHg 81%
    07:00 +5°C° 0 mm 5 m/s 750 mmHg 81%
    08:00 +6°C° 0 mm 5 m/s 751 mmHg 74%
    09:00 +8°C° 0 mm 5 m/s 751 mmHg 67%
    10:00 +10°C° 0 mm 5 m/s 752 mmHg 61%
    11:00 +10°C° 0.2 mm 5 m/s 752 mmHg 57%
    12:00 +12°C° 0.2 mm 5 m/s 751 mmHg 54%
    13:00 +12°C° 0.2 mm 5 m/s 751 mmHg 50%
    14:00 +12°C° 0 mm 5 m/s 751 mmHg 50%
    15:00 +12°C° 0 mm 5 m/s 751 mmHg 49%
    16:00 +12°C° 0 mm 5 m/s 751 mmHg 48%
    17:00 +10°C° 0 mm 4 m/s 751 mmHg 53%
    18:00 +9°C° 0 mm 3 m/s 751 mmHg 57%
    19:00 +8°C° 0 mm 2 m/s 751 mmHg 62%
    20:00 +7°C° 0 mm 2 m/s 751 mmHg 63%
    21:00 +7°C° 0 mm 3 m/s 751 mmHg 63%
    22:00 +5°C° 0 mm 3 m/s 751 mmHg 64%
    23:00 +5°C° 0 mm 3 m/s 751 mmHg 65%
    Voir plus